Home > Weather > Columbia > Past weeks

Flag for U.S.A. Weather for the Past 2 Weeks in Columbia, South Carolina, U.S.A.

Now
39 °F

Sunny.


Feels Like: 36 °F
Forecast: 26 / 40 °F
Wind: 5 mph from North

Location: Columbia Owens Downtown Airport

Current Time: Feb 14, 2016 at 4:55:05 PM

Latest Report: Feb 14, 2016 at 3:53 PM


Visibility: 10 mi

Pressure: 30.40 "Hg

Humidity: 24%

Dew point: 5 °F

Location of ColumbiaLocation

Historic Weather in Columbia — Graph

°F

Columbia Temperature Yesterday

Maximum temperature yesterday: 47 °F (at 2:53 PM)
Minimum temperature yesterday: 32 °F (at 1:53 AM)
Average temperature yesterday: 39 °F

High & Low Weather Summary for the Past Weeks

 TemperatureHumidityPressure
High75 °F (Feb 1, 1:53 PM)97% (Feb 2, 6:53 AM)30.53 "Hg (Feb 2, 6:53 AM)
Low25 °F (Feb 14, 7:53 AM)13% (Feb 13, 3:53 PM)29.69 "Hg (Feb 8, 1:53 PM)
Average47 °F60%30.10 "Hg
* Reported Jan 30 2:53 PM — Feb 14 2:53 PM, Columbia, Weather by CustomWeather, © 2016

Note: Actual official high and low records may vary slightly from our data, if they occured in-between our weather recording intervals... More about our weather records

Advertising

Columbia Weather History for the Previous 24 Hours

 ConditionsComfort  
Time TempWeatherWind HumidityBarometerVisibility
2:53 PM
Sun, Feb 14
39 °FSunny.6 mph22%30.41 "Hg10 mi
1:53 PM38 °FPartly sunny.8 mph22%30.44 "Hg10 mi
12:53 PM37 °FPartly sunny.6 mph22%30.47 "Hg10 mi
11:53 AM35 °FScattered clouds.No wind22%30.50 "Hg10 mi
10:53 AM32 °FPassing clouds.9 mph24%30.53 "Hg10 mi
9:53 AM29 °FPartly sunny.10 mph27%30.53 "Hg10 mi
8:53 AM27 °FSunny.6 mph32%30.53 "Hg10 mi
7:53 AM25 °FSunny.3 mph38%30.52 "Hg10 mi
6:53 AM26 °FClear.3 mph38%30.50 "Hg10 mi
5:53 AM26 °FClear.5 mph38%30.48 "Hg10 mi
4:53 AM27 °FClear.3 mph37%30.46 "Hg10 mi
3:53 AM28 °FClear.No wind35%30.45 "Hg10 mi
2:53 AM28 °FClear.5 mph35%30.43 "Hg10 mi
1:53 AM29 °FClear.5 mph34%30.42 "Hg10 mi
12:53 AM30 °FClear.6 mph33%30.41 "Hg10 mi
11:53 PM
Sat, Feb 13
32 °FClear.3 mph32%30.42 "Hg10 mi
10:53 PM33 °FClear.7 mph35%30.41 "Hg10 mi
9:53 PM32 °FClear.No wind45%30.40 "Hg10 mi
8:53 PM35 °FClear.No wind38%30.38 "Hg10 mi
7:53 PM37 °FClear.No wind31%30.37 "Hg10 mi
6:53 PM41 °FClear.No wind19%30.34 "Hg10 mi
5:53 PM45 °FSunny.5 mph16%30.32 "Hg10 mi
4:53 PM47 °FSunny.10 mph13%30.30 "Hg10 mi
Weather by CustomWeather, © 2016

See weather overviewHow to use our weather pages